This demonstration page uses our WeatherBlox Daily Observations layout. Learn more.

Left ArrowRight Arrow

39.29038, -76.61219

Hourly Observations for September 20, 2020

Temp ( °F °C ) Dew Point ( °F °C ) Humidity (%) Winds ( mph kmh ) Pressure ( in mb ) Visibility ( mi km ) Precip ( " mm )
12:54 am 00:54 Clear 45 7.2 42 5.6 90 90 WNW 3 6 30.37 1028 10 16 0.00 0.00
1:54 am 01:54 Clear 46 7.8 41 5 83 83 Calm 30.38 1029 10 16 0.00 0.00
2:54 am 02:54 Clear 45 7.2 40 4.4 83 83 Calm 30.38 1029 10 16 0.00 0.00
3:54 am 03:54 Clear 43 6.1 40 4.4 89 89 W 3 6 30.39 1029 10 16 0.00 0.00
4:54 am 04:54 Clear 44 6.7 39 3.9 83 83 W 3 6 30.40 1029 10 16 0.00 0.00
5:54 am 05:54 Clear 44 6.7 39 3.9 83 83 Calm 30.41 1030 10 16 0.00 0.00
6:54 am 06:54 Mostly Sunny 45 7.2 38 3.3 77 77 NNW 3 6 30.42 1030 10 16 0.00 0.00
7:54 am 07:54 Mostly Sunny 49 9.4 41 5 74 74 Calm 30.45 1031 10 16 0.00 0.00
8:54 am 08:54 Mostly Sunny 55 12.8 39 3.9 55 55 VRB 6 9 30.46 1032 10 16 0.00 0.00
9:54 am 09:54 Mostly Sunny 59 15 40 4.4 49 49 ENE 9 15 30.48 1032 10 16 0.00 0.00
10:54 am 10:54 Mostly Sunny 62 16.7 39 3.9 43 43 NE 10 17 30.49 1033 10 16 0.00 0.00
11:54 am 11:54 Mostly Sunny 66 18.9 38 3.3 36 36 E 12 19 30.49 1033 10 16 0.00 0.00
12:54 pm 12:54 Mostly Sunny 67 19.4 37 2.8 33 33 NE 8 13 30.48 1032 10 16 0.00 0.00
1:54 pm 13:54 Mostly Sunny 68 20 37 2.8 32 32 ENE 14 22 30.48 1032 10 16 0.00 0.00
2:54 pm 14:54 Partly Cloudy 68 20 39 3.9 35 35 E 8 13 30.47 1032 10 16 0.00 0.00
3:54 pm 15:54 Mostly Sunny 66 18.9 39 3.9 37 37 E 13 20 30.46 1032 10 16 0.00 0.00
4:54 pm 16:54 Mostly Sunny 66 18.9 38 3.3 36 36 E 10 17 30.45 1031 10 16 0.00 0.00
5:54 pm 17:54 Mostly Sunny 64 17.8 37 2.8 37 37 E 15 24 30.46 1032 10 16 0.00 0.00
6:54 pm 18:54 Mostly Sunny 62 16.7 38 3.3 41 41 E 8 13 30.48 1032 10 16 0.00 0.00
7:54 pm 19:54 Mostly Clear 60 15.6 37 2.8 42 42 NE 6 9 30.49 1033 10 16 0.00 0.00
8:54 pm 20:54 Clear 58 14.4 39 3.9 50 50 NNE 6 9 30.50 1033 10 16 0.00 0.00
9:54 pm 21:54 Clear 56 13.3 39 3.9 53 53 NE 8 13 30.52 1033 10 16 0.00 0.00
10:54 pm 22:54 Clear 54 12.2 40 4.4 59 59 E 7 11 30.52 1034 10 16 0.00 0.00
11:54 pm 23:54 Clear 54 12.2 39 3.9 57 57 E 5 7 30.53 1034 10 16 0.00 0.00

Powered by AerisWeather